Regional Weather Roundup
Issued by NWS

Home | Current Version | Previous Version | Text Only | Print | Product List | Glossary Off
Versions: 1 2 3 4 5 6 7 8 9 10 11 12 13 14 15 16 17 18 19 20 21 22 23 24 25 26 27 28 29 30 31 32 33 34 35 36 37 38 39 40

000
ASUS45 KCYS 210310
RWRWY

WYOMING REGIONAL WEATHER ROUNDUP
NATIONAL WEATHER SERVICE CHEYENNE WY
900 PM MDT MON OCT 20 2014

NOTE:  "FAIR" INDICATES FEW OR NO CLOUDS BELOW 12,000 FEET
WITH NO SIGNIFICANT WEATHER AND/OR OBSTRUCTIONS TO VISIBILITY.

WYZ001-210400-
YELLOWSTONE NATIONAL PARK

CITY           SKY/WX    TMP DP  RH WIND       PRES   REMARKS
LK YELLOWSTONE   N/A     38  31  76 NW3       30.12S
W YELLOWSTONE  NOT AVBL

$$
WYZ002>013-054>058-071-098>099-210400-
NORTHERN WYOMING

CITY           SKY/WX    TMP DP  RH WIND       PRES   REMARKS
JACKSON        CLEAR     39  30  70 N6        30.04S WCI  35
CODY           PTCLDY   N/A N/A N/A SW5       29.92S
GREYBULL       CLEAR     59  28  30 SE5       29.85F
WORLAND        CLEAR     57  27  31 S10       29.87S
SHERIDAN       CLEAR     49  31  49 CALM      29.87F
BUFFALO        CLEAR     55  22  27 W7        29.93F
GILLETTE       CLEAR     61  33  35 S15       29.90F
HULETT         FAIR      63  34  34 CALM      29.92
NEWCASTLE      FAIR      64  32  29 MISG      29.95

$$
WYZ014>020-022>026-101>103-210400-
CENTRAL WYOMING

CITY           SKY/WX    TMP DP  RH WIND       PRES   REMARKS
BIG PINEY      CLEAR     39  27  62 NW3       30.09S
PINEDALE       PTCLDY    43  32  65 NE5       30.11R
DUBOIS         FAIR      48  28  46 W7        30.07S
LANDER         CLEAR     60  30  32 SW17      29.97S
RIVERTON       CLEAR     55  30  38 SW9       29.98S
CASPER         CLEAR     48  31  51 SW7       30.00S
DOUGLAS        PTCLDY    52  33  48 SE3       30.00S

$$
WYZ021-027>030-104>119-210400-
SOUTHERN WYOMING

CITY           SKY/WX    TMP DP  RH WIND       PRES   REMARKS
EVANSTON       CLEAR     53  32  44 S6        30.09S
KEMMERER       MOCLDY    54  32  43 CALM      30.10S
FORT BRIDGER   FAIR      55  34  45 S9        30.12S
ROCK SPRINGS   CLEAR     54  31  41 S13       30.08F
RAWLINS        CLEAR     52  33  48 W9        30.11S
SARATOGA       FAIR      48  34  57 S7        30.14S
LARAMIE        CLEAR     47  33  58 S3        30.15R
CHEYENNE       PTCLDY    53  35  50 S6        30.10S
TORRINGTON     CLEAR     59  37  44 E10       29.98S
PINE BLUFFS    FAIR      59  32  36 S13       30.07S

$$



USA.gov is the U.S. government's official web portal to all federal, state and local government web resources and services.